Location: Newark
(25.4297°S, 49.2719°W)
Time: 14:33:28
(UTC+00:00)

Tiros 1 - Pass Details

Date: 16 November 2019
Orbit: 630 x 664 km, 48.4° (Epoch: 13 December)

Event Time Altitude Azimuth Distance (km) Brightness Sun altitude
Exits shadow 05:06:51 20° 127° (SE) 1,529 9.6 -36.4°
Drops below altitude 10° 05:08:22 10° 130° (SE) 2,095 10.5 -36.2°
Sets 05:10:44 0° 132° (SE) 3,011 11.6 -35.9°
